Tracking 23752 objects as of 23-Oct-2021
HD Live streaming from Space Station
objects crossing your sky now

CZ-3C DEB

Track CZ-3C DEB now!


NORAD ID: 40861
Int'l Code: 2012-008AB
Perigee: 637.5 km
Apogee: 35,264.9 km
Inclination: 20.3 °
Period: 629.2 minutes
Semi major axis: 24322 km
RCS: Unknown
Launch date: February 24, 2012
Source: People's Republic of China (PRC)
Launch site: Xichang Space Center, China (XSC)

Note: This is SATELLITE DEBRIS
aabbcc
Your satellite tracking list
Your tracking list is empty




NASA's NSSDC Master Catalog

Two Line Element Set (TLE):
1 40861U 12008AB  21289.00551797 -.00000069  00000-0 -17385-2 0  9999
2 40861  20.2969 221.4012 7118467 269.3648  16.3129  2.28874663 57395
Source of the keplerian elements: AFSPC